| time (UTC) | temp C | wind direction | speed KPH | gust KPH | rain 1hr cm | rain 24hr cm | rain mn cm | humidity % | barometer mb |
| 20260506163014 | 17 | 211 | 20.9 | 37.0 | 0.00 | 0.00 | 0.00 | 68 | 1011.6 |
| 20260506161518 | 17 | 217 | 19.3 | 33.8 | 0.00 | 0.00 | 0.00 | 68 | 1011.6 |
| 20260506160024 | 17 | 190 | 22.5 | 33.8 | 0.00 | 0.00 | 0.00 | 69 | 1011.8 |
| 20260506154532 | 17 | 210 | 24.1 | 32.2 | 0.00 | 0.00 | 0.00 | 67 | 1011.9 |
| 20260506153011 | 17 | 186 | 24.1 | 40.2 | 0.00 | 0.00 | 0.00 | 67 | 1011.9 |
| 20260506151517 | 18 | 204 | 17.7 | 35.4 | 0.00 | 0.00 | 0.00 | 70 | 1012.0 |
| 20260506150022 | 18 | 217 | 17.7 | 29.0 | 0.00 | 0.00 | 0.00 | 69 | 1012.3 |
| 20260506144526 | 18 | 195 | 16.1 | 29.0 | 0.00 | 0.00 | 0.00 | 66 | 1012.5 |
| 20260506143033 | 18 | 242 | 14.5 | 30.6 | 0.00 | 0.00 | 0.00 | 67 | 1012.7 |
| 20260506141514 | 18 | 176 | 16.1 | 33.8 | 0.00 | 0.00 | 0.00 | 65 | 1012.7 |
| 20260506140020 | 17 | 240 | 16.1 | 32.2 | 0.00 | 0.00 | 0.00 | 68 | 1012.9 |
| 20260506134524 | 18 | 207 | 11.3 | 33.8 | 0.00 | 0.00 | 0.00 | 71 | 1013.0 |
| 20260506133029 | 17 | 204 | 22.5 | 33.8 | 0.00 | 0.00 | 0.00 | 71 | 1013.1 |
| 20260506131532 | 17 | 209 | 20.9 | 37.0 | 0.00 | 0.00 | 0.00 | 70 | 1013.2 |
| 20260506130020 | 17 | 207 | 19.3 | 38.6 | 0.00 | 0.00 | 0.00 | 70 | 1013.2 |
| 20260506124524 | 17 | 181 | 17.7 | 33.8 | 0.00 | 0.00 | 0.00 | 74 | 1013.4 |
| 20260506123031 | 17 | 208 | 22.5 | 33.8 | 0.00 | 0.00 | 0.00 | 72 | 1013.6 |
| 20260506121527 | 17 | 209 | 14.5 | 30.6 | 0.00 | 0.00 | 0.00 | 74 | 1013.8 |
| 20260506120018 | 17 | 215 | 19.3 | 30.6 | 0.00 | 0.00 | 0.00 | 73 | 1014.0 |
| 20260506114521 | 17 | 237 | 17.7 | 29.0 | 0.00 | 0.00 | 0.00 | 75 | 1014.2 |
| 20260506113015 | 17 | 232 | 16.1 | 27.4 | 0.00 | 0.00 | 0.00 | 69 | 1014.3 |
| 20260506111509 | 17 | 180 | 11.3 | 27.4 | 0.00 | 0.00 | 0.00 | 70 | 1014.4 |
| 20260506110014 | 16 | 204 | 12.9 | 27.4 | 0.00 | 0.00 | 0.00 | 71 | 1014.5 |
| 20260506104520 | 17 | 198 | 11.3 | 24.1 | 0.00 | 0.00 | 0.00 | 71 | 1014.5 |
| 20260506103010 | 16 | 184 | 14.5 | 22.5 | 0.00 | 0.00 | 0.00 | 72 | 1014.6 |
| 20260506101506 | 16 | 255 | 16.1 | 29.0 | 0.00 | 0.00 | 0.00 | 72 | 1014.4 |
| 20260506100011 | 16 | 244 | 14.5 | 25.7 | 0.00 | 0.00 | 0.00 | 72 | 1014.4 |
| 20260506094520 | 16 | 251 | 17.7 | 24.1 | 0.00 | 0.00 | 0.00 | 74 | 1014.5 |
| 20260506093023 | 16 | 256 | 14.5 | 24.1 | 0.00 | 0.00 | 0.00 | 73 | 1014.5 |
| 20260506091514 | 16 | 238 | 17.7 | 22.5 | 0.00 | 0.00 | 0.00 | 73 | 1014.5 |
| 20260506090015 | 15 | 254 | 14.5 | 22.5 | 0.00 | 0.00 | 0.00 | 75 | 1014.4 |
| 20260506084515 | 15 | 241 | 11.3 | 25.7 | 0.00 | 0.00 | 0.00 | 76 | 1014.3 |
| 20260506083022 | 15 | 273 | 12.9 | 22.5 | 0.00 | 0.00 | 0.00 | 77 | 1014.4 |
| 20260506081524 | 15 | 254 | 14.5 | 22.5 | 0.00 | 0.00 | 0.00 | 78 | 1014.5 |
| 20260506073018 | 13 | 228 | 14.5 | 20.9 | 0.00 | 0.00 | 0.00 | 84 | 1014.6 |
| 20260506071522 | 13 | 269 | 11.3 | 19.3 | 0.00 | 0.00 | 0.00 | 86 | 1014.5 |
| 20260506061540 | 11 | 281 | 8.0 | 11.3 | 0.00 | 0.00 | 0.00 | 89 | 1014.5 |
| 20260506044530 | 11 | 314 | 6.4 | 9.7 | 0.00 | 0.00 | 0.00 | 89 | 1014.4 |
| 20260506043024 | 11 | 317 | 4.8 | 11.3 | 0.00 | 0.00 | 0.00 | 89 | 1014.4 |
| 20260506041524 | 11 | 300 | 8.0 | 12.9 | 0.00 | 0.00 | 0.00 | 88 | 1014.5 |
| 20260506040023 | 11 | 293 | 8.0 | 11.3 | 0.00 | 0.00 | 0.00 | 88 | 1014.5 |
| 20260506034528 | 11 | 289 | 8.0 | 12.9 | 0.00 | 0.00 | 0.00 | 88 | 1014.6 |
| 20260506033027 | 11 | 301 | 6.4 | 12.9 | 0.00 | 0.00 | 0.00 | 87 | 1014.7 |
| 20260506031514 | 11 | 288 | 4.8 | 12.9 | 0.00 | 0.00 | 0.00 | 87 | 1014.8 |
| 20260506030022 | 11 | 306 | 6.4 | 11.3 | 0.00 | 0.00 | 0.00 | 87 | 1014.8 |
| 20260506024538 | 11 | 297 | 6.4 | 11.3 | 0.00 | 0.00 | 0.00 | 86 | 1014.9 |
| 20260506023009 | 11 | 292 | 6.4 | 12.9 | 0.00 | 0.00 | 0.00 | 86 | 1014.9 |
| 20260506021512 | 12 | 291 | 8.0 | 12.9 | 0.00 | 0.00 | 0.00 | 85 | 1015.1 |
| 20260506020020 | 12 | 275 | 8.0 | 17.7 | 0.00 | 0.00 | 0.00 | 84 | 1015.2 |
| 20260506014525 | 12 | 288 | 11.3 | 17.7 | 0.00 | 0.00 | 0.00 | 84 | 1015.2 |
| 20260506013005 | 12 | 292 | 9.7 | 16.1 | 0.00 | 0.00 | 0.00 | 83 | 1015.3 |
| 20260506011510 | 13 | 288 | 8.0 | 19.3 | 0.00 | 0.00 | 0.00 | 82 | 1015.4 |
| 20260506010014 | 13 | 271 | 9.7 | 20.9 | 0.00 | 0.00 | 0.00 | 82 | 1015.5 |
| 20260506004521 | 13 | 284 | 12.9 | 24.1 | 0.00 | 0.00 | 0.00 | 81 | 1015.6 |
| 20260506003026 | 13 | 288 | 16.1 | 27.4 | 0.00 | 0.00 | 0.00 | 81 | 1015.7 |
| 20260506001506 | 13 | 304 | 14.5 | 20.9 | 0.00 | 0.00 | 0.00 | 81 | 1015.8 |
| 20260506000012 | 13 | 274 | 14.5 | 22.5 | 0.00 | 0.00 | 0.00 | 81 | 1015.9 |
| 20260505234521 | 13 | 254 | 14.5 | 27.4 | 0.00 | 0.00 | 0.00 | 80 | 1015.9 |
| 20260505233021 | 13 | 290 | 12.9 | 25.7 | 0.00 | 0.00 | 0.00 | 79 | 1016.0 |
| 20260505231530 | 13 | 252 | 20.9 | 30.6 | 0.00 | 0.00 | 0.00 | 78 | 1016.0 |
| 20260505230011 | 14 | 275 | 20.9 | 37.0 | 0.00 | 0.00 | 0.00 | 77 | 1016.1 |
| 20260505224514 | 13 | 265 | 20.9 | 30.6 | 0.00 | 0.00 | 0.00 | 77 | 1016.2 |
| 20260505223027 | 13 | 274 | 11.3 | 19.3 | 0.00 | 0.00 | 0.00 | 76 | 1016.2 |
| 20260505221526 | 14 | 292 | 8.0 | 25.7 | 0.00 | 0.00 | 0.00 | 74 | 1016.3 |
| 20260505220025 | 15 | 261 | 17.7 | 29.0 | 0.00 | 0.00 | 0.00 | 73 | 1016.2 |
| 20260505214523 | 15 | 256 | 14.5 | 25.7 | 0.00 | 0.00 | 0.00 | 74 | 1016.3 |
| 20260505213019 | 15 | 280 | 14.5 | 22.5 | 0.00 | 0.00 | 0.00 | 74 | 1016.3 |
| 20260505211525 | 15 | 260 | 19.3 | 27.4 | 0.00 | 0.00 | 0.00 | 73 | 1016.4 |
| 20260505210026 | 15 | 249 | 17.7 | 25.7 | 0.00 | 0.00 | 0.00 | 75 | 1016.3 |
| 20260505204510 | 15 | 233 | 16.1 | 24.1 | 0.00 | 0.00 | 0.00 | 80 | 1016.2 |
| 20260505203018 | 15 | 224 | 14.5 | 27.4 | 0.00 | 0.00 | 0.00 | 79 | 1016.1 |
| 20260505201520 | 15 | 253 | 16.1 | 25.7 | 0.00 | 0.00 | 0.00 | 79 | 1016.0 |
| 20260505200030 | 15 | 234 | 16.1 | 25.7 | 0.00 | 0.00 | 0.00 | 79 | 1016.0 |
| 20260505194526 | 15 | 225 | 16.1 | 27.4 | 0.00 | 0.00 | 0.00 | 80 | 1015.8 |
| 20260505193013 | 15 | 244 | 12.9 | 29.0 | 0.00 | 0.00 | 0.00 | 79 | 1015.7 |
| 20260505191519 | 15 | 194 | 12.9 | 29.0 | 0.00 | 0.00 | 0.00 | 78 | 1015.7 |
| 20260505190028 | 15 | 188 | 19.3 | 33.8 | 0.00 | 0.00 | 0.00 | 78 | 1015.7 |
| 20260505184524 | 15 | 209 | 19.3 | 33.8 | 0.00 | 0.00 | 0.00 | 77 | 1015.7 |
| 20260505183033 | 15 | 213 | 17.7 | 30.6 | 0.00 | 0.00 | 0.00 | 77 | 1015.5 |
| 20260505181519 | 16 | 223 | 19.3 | 37.0 | 0.00 | 0.00 | 0.00 | 75 | 1015.7 |
| 20260505180023 | 16 | 205 | 20.9 | 35.4 | 0.00 | 0.00 | 0.00 | 74 | 1015.8 |
| 20260505174526 | 16 | 208 | 17.7 | 38.6 | 0.00 | 0.00 | 0.00 | 74 | 1015.9 |
| 20260505173028 | 16 | 224 | 20.9 | 37.0 | 0.00 | 0.00 | 0.00 | 71 | 1016.0 |
| 20260505171529 | 16 | 227 | 17.7 | 35.4 | 0.00 | 0.00 | 0.00 | 73 | 1016.2 |
| 20260505170017 | 16 | 217 | 17.7 | 32.2 | 0.00 | 0.00 | 0.00 | 73 | 1016.2 |
| 20260505164504 | 16 | 200 | 20.9 | 35.4 | 0.00 | 0.00 | 0.00 | 72 | 1016.2 |